Weather History for Guthrie, OK

Change the Weather History Date:

Saturday, September 29, 2012

  Actual Average Record
Temperature  
Mean Temperature 70 °F -  
Max Temperature 73 °F 81 °F 98 °F (1953)
Min Temperature 66 °F 55 °F 34 °F (1949)
Cooling Degree Days 4    
Growing Degree Days 20 (Base 50)    
Moisture  
Dew Point 65 °F    
Average Humidity 84    
Maximum Humidity 94    
Minimum Humidity 73    
Precipitation  
Precipitation 0.00 in - - ()
Sea Level Pressure  
Sea Level Pressure 30.02 in    
Wind  
Wind Speed 6 mph (NE)    
Max Wind Speed 10 mph    
Max Gust Speed -    
Visibility 8 miles    
Events      
Averages and records for this station are not official NWS values.
T = Trace of Precipitation, MM = Missing Value Source: NWS Daily Summary

Daily Weather History Graph

Daily Weather History Graph

Search for Another Location

Airport:

Trip Planner

Search our weather history database for the weather conditions in past years. The results will help you decide how hot, cold, wet, or windy it might be!

Date:

Astronomy

Sep. 29, 2012 Rise Set
Actual Time 7:23 AM CDT 7:15 PM CDT
Civil Twilight 6:57 AM CDT 7:40 PM CDT
Nautical Twilight 6:28 AM CDT 8:10 PM CDT
Astronomical Twilight 5:58 AM CDT 8:40 PM CDT
Moon 6:50 PM CDT (9/29) 6:55 AM CDT (9/29)
Length of Visible Light 12h 42m
Length of Day
11h 51m
Full, 100% of the Moon is Illuminated
Sep 29
Full
Sep 29
Full
Oct 8
Last Quarter
Oct 15
New
Oct 21
First Quarter

Hourly Weather History & Observations

Time (CDT) Temp. Dew Point Humidity Pressure Visibility Wind Dir Wind Speed Gust Speed Precip Events Conditions
12:53 AM 71.1 °F 66.0 °F 84% 30.04 in 10.0 mi NE 5.8 mph - N/A   Overcast
1:53 AM 71.1 °F 66.0 °F 84% 30.04 in 10.0 mi East 8.1 mph - N/A   Overcast
2:53 AM 70.0 °F 66.0 °F 87% 30.04 in 10.0 mi ENE 4.6 mph - N/A   Mostly Cloudy
3:53 AM 69.1 °F 64.9 °F 87% 30.03 in 10.0 mi NE 6.9 mph - N/A   Overcast
4:53 AM 68.0 °F 64.9 °F 90% 30.02 in 10.0 mi East 5.8 mph - N/A   Mostly Cloudy
5:24 AM 68.0 °F 64.4 °F 88% 30.04 in 10.0 mi NE 6.9 mph - N/A   Scattered Clouds
5:37 AM 68.0 °F 64.4 °F 88% 30.03 in 10.0 mi ENE 5.8 mph - N/A   Mostly Cloudy
5:53 AM 68.0 °F 64.0 °F 87% 30.01 in 9.0 mi ENE 6.9 mph - N/A   Overcast
6:53 AM 66.9 °F 64.0 °F 90% 30.03 in 7.0 mi ENE 10.4 mph - N/A   Overcast
7:13 AM 66.2 °F 64.4 °F 94% 30.04 in 6.0 mi NE 5.8 mph - N/A   Scattered Clouds
7:53 AM 66.9 °F 64.0 °F 90% 30.04 in 6.0 mi NE 4.6 mph - N/A   Overcast
8:36 AM 68.0 °F 64.4 °F 88% 30.06 in 5.0 mi NE 4.6 mph - N/A   Mostly Cloudy
8:53 AM 68.0 °F 64.0 °F 87% 30.05 in 6.0 mi NE 4.6 mph - N/A   Scattered Clouds
9:32 AM 69.8 °F 64.4 °F 83% 30.07 in 9.0 mi NE 6.9 mph - N/A   Overcast
9:53 AM 69.1 °F 64.0 °F 84% 30.05 in 9.0 mi NE 5.8 mph - N/A   Overcast
10:53 AM 70.0 °F 64.9 °F 84% 30.05 in 9.0 mi ENE 8.1 mph - N/A   Overcast
11:53 AM 69.1 °F 64.9 °F 87% 30.05 in 6.0 mi Variable 5.8 mph - N/A   Overcast
12:35 PM 69.8 °F 64.4 °F 83% 30.06 in 6.0 mi NE 6.9 mph - N/A   Haze
12:53 PM 71.1 °F 64.9 °F 81% 30.03 in 7.0 mi Variable 4.6 mph - N/A   Overcast
1:53 PM 71.1 °F 64.0 °F 78% 30.01 in 7.0 mi Variable 5.8 mph - N/A   Overcast
2:10 PM 71.6 °F 64.4 °F 78% 30.03 in 8.0 mi NE 5.8 mph - N/A   Overcast
2:53 PM 72.0 °F 64.0 °F 76% 29.99 in 10.0 mi NE 6.9 mph - N/A   Overcast
3:37 PM 73.4 °F 64.4 °F 73% 30.01 in 10.0 mi NNE 4.6 mph - N/A   Mostly Cloudy
3:53 PM 73.0 °F 64.0 °F 73% 29.99 in 10.0 mi Variable 5.8 mph - N/A   Scattered Clouds
4:08 PM 73.4 °F 64.4 °F 73% 30.00 in 10.0 mi NNE 4.6 mph - N/A   Mostly Cloudy
4:53 PM 72.0 °F 64.0 °F 76% 29.98 in 10.0 mi NE 6.9 mph - N/A   Overcast
5:46 PM 71.6 °F 64.4 °F 78% 29.99 in 9.0 mi ENE 4.6 mph - N/A   Scattered Clouds
5:53 PM 71.1 °F 64.0 °F 78% 29.97 in 9.0 mi ENE 4.6 mph - N/A   Scattered Clouds
6:53 PM 70.0 °F 64.9 °F 84% 29.97 in 9.0 mi Calm Calm - N/A   Clear
7:53 PM 69.1 °F 64.9 °F 87% 29.97 in 9.0 mi North - - N/A   Clear
8:53 PM 69.1 °F 64.9 °F 87% 29.98 in 8.0 mi Calm Calm - N/A   Overcast
9:53 PM 69.1 °F 66.0 °F 90% 29.99 in 7.0 mi Calm Calm - N/A   Mostly Cloudy
10:53 PM 69.1 °F 64.9 °F 87% 29.99 in 7.0 mi Calm Calm - N/A   Overcast
11:53 PM 69.1 °F 64.9 °F 87% 29.98 in 7.0 mi Calm Calm - N/A   Overcast